Norbank — PGIS — position and weather

sailwx.info

Track history (hours):
 
Tides and Currents Weather Stations Pressure Air Temp Water Temp Dewpoint Dewpoint Depression Visibility Wind Speed Wind Dir Waves Ship Positions

Norbank

Operator: P & O Ferries

Last reported at 2017-Apr-26 11:30 UTC. Time now 2017-Apr-26 11:50 UTC.
Position N 53°33' W 003°30'.

; draft 5.5 m.

Type: Ship (hazmat cat A). MMSI: 246213000.

Date/timePositionNaut miles runAvg speedWind from/ knotsBaromVisibWave heightAir tempDewpointWater temp
2017-Apr-26 11:30N 53°33' W 003°30'1019.4
2017-Apr-26 11:00N 53°31' W 003°14'816.0
2017-Apr-26 10:31N 53°27' W 003°02'1 2.4
2017-Apr-26 09:59N 53°26' W 003°01'1 2.2
2017-Apr-26 09:29N 53°27' W 003°01'0 0.0
2017-Apr-26 08:44N 53°27' W 003°01'0 0.0
2017-Apr-26 08:29N 53°27' W 003°01'0 0.0
2017-Apr-26 07:52N 53°27' W 003°01'0 0.0
2017-Apr-26 07:22N 53°27' W 003°01'0 0.0
2017-Apr-26 06:58N 53°27' W 003°01'0 0.0
2017-Apr-26 06:28N 53°27' W 003°01'0 0.0
2017-Apr-26 05:58N 53°27' W 003°01'0 1.0
2017-Apr-26 05:30N 53°27' W 003°01'0 0.0
2017-Apr-26 05:00N 53°27' W 003°01'4 8.1
2017-Apr-26 04:30N 53°30' W 003°06'612.2
2017-Apr-26 04:00N 53°31' W 003°16'918.9
2017-Apr-26 03:30N 53°31' W 003°32'919.1
2017-Apr-26 03:00N 53°32' W 003°48'918.8
2017-Apr-26 02:30N 53°33' W 004°03'6618.6
2017-Apr-25 22:56N 53°23' W 005°54'818.0
2017-Apr-25 22:30N 53°20' W 006°06'4 8.6
2017-Apr-25 22:00N 53°21' W 006°13'0 0.0
2017-Apr-25 21:27N 53°21' W 006°13'0 0.0
2017-Apr-25 20:51N 53°21' W 006°13'0 0.0
2017-Apr-25 20:14N 53°21' W 006°13'0 0.0
2017-Apr-25 19:59N 53°21' W 006°13'0 0.0
2017-Apr-25 19:26N 53°21' W 006°13'0 0.0
2017-Apr-25 18:59N 53°21' W 006°13'0 0.0
2017-Apr-25 18:20N 53°21' W 006°13'0 0.0
2017-Apr-25 17:59N 53°21' W 006°13'1 2.6
2017-Apr-25 17:30N 53°21' W 006°11'815.8
2017-Apr-25 17:00N 53°22' W 005°58'1120.4
2017-Apr-25 16:29N 53°26' W 005°41'6621.7
2017-Apr-25 13:28N 53°35' W 003°52'1022.2
2017-Apr-25 13:00N 53°33' W 003°35'1121.2
2017-Apr-25 12:30N 53°32' W 003°17'917.3
2017-Apr-25 12:01N 53°28' W 003°04'3 6.0
2017-Apr-25 11:30N 53°26' W 003°01'1 1.6
2017-Apr-25 11:00N 53°27' W 003°01'0 0.6
2017-Apr-25 10:30N 53°27' W 003°01'0 0.0
2017-Apr-25 09:57N 53°27' W 003°01'0 0.0
2017-Apr-25 09:30N 53°27' W 003°01'0 0.0
2017-Apr-25 08:59N 53°27' W 003°01'0 0.0
2017-Apr-25 08:29N 53°27' W 003°01'0 0.0
2017-Apr-25 07:59N 53°27' W 003°01'0 0.0
2017-Apr-25 07:29N 53°27' W 003°01'0 0.0
2017-Apr-25 06:59N 53°27' W 003°01'0 0.0
2017-Apr-25 06:25N 53°27' W 003°01'0 0.0
2017-Apr-25 05:58N 53°27' W 003°01'0 0.0
2017-Apr-25 05:28N 53°27' W 003°01'0 0.9
2017-Apr-25 04:57N 53°27' W 003°01'0 0.3
2017-Apr-25 04:30N 53°27' W 003°01'2 4.0
2017-Apr-25 04:00N 53°28' W 003°04'3 6.4
2017-Apr-25 03:30N 53°31' W 003°07'510.5
2017-Apr-25 03:00N 53°31' W 003°16'715.0
2017-Apr-25 02:30N 53°31' W 003°28'815.1
2017-Apr-25 02:00N 53°31' W 003°41'815.4
2017-Apr-25 01:30N 53°32' W 003°54'815.9
2017-Apr-25 01:00N 53°33' W 004°07'6417.4
2017-Apr-24 21:18N 53°23' W 005°54'518.6
2017-Apr-24 21:01N 53°20' W 006°02'612.2
2017-Apr-24 20:30N 53°21' W 006°12'1 0.8
2017-Apr-24 19:42N 53°21' W 006°13'0 0.0
2017-Apr-24 19:30N 53°21' W 006°13'0 0.0
2017-Apr-24 19:00N 53°21' W 006°13'0 0.0
2017-Apr-24 18:23N 53°21' W 006°13'0 0.0
2017-Apr-24 17:47N 53°21' W 006°13'0 0.0
2017-Apr-24 17:29N 53°21' W 006°13'0 0.0
2017-Apr-24 16:59N 53°21' W 006°13'0 0.0
2017-Apr-24 16:10N 53°21' W 006°13'0 0.0
2017-Apr-24 14:22N 53°21' W 006°13'0 0.0
2017-Apr-24 13:09N 53°21' W 006°13'0 0.0
2017-Apr-24 12:57N 53°21' W 006°13'0 0.0
2017-Apr-24 12:27N 53°21' W 006°13'0 0.0
2017-Apr-24 08:37N 53°21' W 006°13'0 0.0
2017-Apr-24 08:19N 53°21' W 006°13'0 0.0
2017-Apr-24 07:55N 53°21' W 006°13'0 0.0
2017-Apr-24 07:19N 53°21' W 006°13'0 0.0
2017-Apr-24 06:42N 53°21' W 006°13'0 0.0
2017-Apr-24 06:00N 53°21' W 006°13'0 0.0
2017-Apr-24 05:24N 53°21' W 006°13'0 0.0
2017-Apr-24 04:47N 53°21' W 006°13'0 0.0
2017-Apr-24 04:30N 53°21' W 006°13'1 1.8
2017-Apr-24 04:00N 53°21' W 006°12'713.5
2017-Apr-24 03:30N 53°21' W 006°00'815.5
2017-Apr-24 03:00N 53°24' W 005°48'7415.3
2017-Apr-23 22:11N 53°34' W 003°45'316.7
2017-Apr-23 22:00N 53°34' W 003°40'816.4
2017-Apr-23 21:30N 53°33' W 003°26'816.8
2017-Apr-23 21:00N 53°31' W 003°12'815.6
2017-Apr-23 20:31N 53°27' W 003°02'0 0.7
2017-Apr-23 20:00N 53°27' W 003°01'0 0.8
2017-Apr-23 19:30N 53°27' W 003°01'0 0.0
2017-Apr-23 19:00N 53°27' W 003°01'0 0.0
2017-Apr-23 18:21N 53°27' W 003°01'0 0.0
2017-Apr-23 17:59N 53°27' W 003°01'0 0.0
2017-Apr-23 17:26N 53°27' W 003°01'0 0.0
2017-Apr-23 16:59N 53°27' W 003°01'0 0.0
2017-Apr-23 16:29N 53°27' W 003°01'0 0.0
2017-Apr-23 15:55N 53°27' W 003°01'0 0.0
2017-Apr-23 15:28N 53°27' W 003°01'0 0.0
2017-Apr-23 14:58N 53°27' W 003°01'0 0.0
2017-Apr-23 13:58N 53°27' W 003°01'0 0.0
2017-Apr-23 13:30N 53°27' W 003°01'0 0.0
2017-Apr-23 13:00N 53°27' W 003°01'0 0.0
2017-Apr-23 12:30N 53°27' W 003°01'0 0.0
2017-Apr-23 12:00N 53°27' W 003°01'0 0.0
2017-Apr-23 11:30N 53°27' W 003°01'0 0.0
2017-Apr-23 10:59N 53°27' W 003°01'0 0.0
2017-Apr-23 10:29N 53°27' W 003°01'0 0.0
2017-Apr-23 09:59N 53°27' W 003°01'0 0.0
2017-Apr-23 09:29N 53°27' W 003°01'0 0.0
2017-Apr-23 08:58N 53°27' W 003°01'0 0.0
2017-Apr-23 08:28N 53°27' W 003°01'0 0.0
2017-Apr-23 07:58N 53°27' W 003°01'0 0.0
2017-Apr-23 07:25N 53°27' W 003°01'0 0.0
2017-Apr-23 06:58N 53°27' W 003°01'0 0.0
2017-Apr-23 06:30N 53°27' W 003°01'0 0.0
2017-Apr-23 06:00N 53°27' W 003°01'0 0.0
2017-Apr-23 05:27N 53°27' W 003°01'0 0.0
2017-Apr-23 04:57N 53°27' W 003°01'0 1.0
2017-Apr-23 04:30N 53°27' W 003°01'0 0.3
2017-Apr-23 04:00N 53°27' W 003°01'5 9.1
2017-Apr-23 03:29N 53°30' W 003°06'714.4
2017-Apr-23 03:00N 53°31' W 003°18'815.9
2017-Apr-23 02:30N 53°32' W 003°31'816.9
2017-Apr-23 02:00N 53°32' W 003°45'916.7
2017-Apr-23 01:29N 53°34' W 003°60'6316.3
2017-Apr-22 21:35N 53°24' W 005°45'217.4
2017-Apr-22 21:29N 53°24' W 005°48'817.2
2017-Apr-22 21:00N 53°21' W 006°01'612.5
2017-Apr-22 20:30N 53°21' W 006°11'1 1.9
2017-Apr-22 19:58N 53°21' W 006°13'0 0.0
2017-Apr-22 19:22N 53°21' W 006°13'0 0.0
2017-Apr-22 18:45N 53°21' W 006°13'0 0.0
2017-Apr-22 18:27N 53°21' W 006°13'0 0.0
2017-Apr-22 18:00N 53°21' W 006°13'0 0.0
2017-Apr-22 17:21N 53°21' W 006°13'0 0.0
2017-Apr-22 16:38N 53°21' W 006°13'0 0.0
2017-Apr-22 16:30N 53°21' W 006°13'3 5.1
2017-Apr-22 16:00N 53°21' W 006°09'715.0
2017-Apr-22 15:30N 53°23' W 005°57'815.8
2017-Apr-22 15:00N 53°25' W 005°44'6418.3
2017-Apr-22 11:31N 53°35' W 003°58'121.0
2017-Apr-22 11:29N 53°35' W 003°57'1120.6
2017-Apr-22 10:58N 53°34' W 003°39'920.4
2017-Apr-22 10:30N 53°32' W 003°23'1019.0
2017-Apr-22 10:00N 53°32' W 003°07'611.9
2017-Apr-22 09:30N 53°27' W 003°01'0 0.9
2017-Apr-22 09:00N 53°27' W 003°01'0 0.0
2017-Apr-22 08:30N 53°27' W 003°01'0 0.0
2017-Apr-22 08:00N 53°27' W 003°01'0 0.0
2017-Apr-22 07:30N 53°27' W 003°01'0 0.0
2017-Apr-22 06:56N 53°27' W 003°01'0 0.0
2017-Apr-22 06:29N 53°27' W 003°01'0 0.0
2017-Apr-22 05:59N 53°27' W 003°01'0 0.0
2017-Apr-22 05:29N 53°27' W 003°01'0 0.0
2017-Apr-22 04:59N 53°27' W 003°01'0 0.0
2017-Apr-22 04:28N 53°27' W 003°01'0 0.2
2017-Apr-22 04:00N 53°27' W 003°01'0 0.8
2017-Apr-22 03:30N 53°27' W 003°01'4 7.8
2017-Apr-22 03:00N 53°30' W 003°06'815.0
2017-Apr-22 02:30N 53°31' W 003°18'917.9
2017-Apr-22 02:00N 53°31' W 003°33'917.6
2017-Apr-22 01:30N 53°32' W 003°48'917.1
2017-Apr-22 01:00N 53°32' W 004°02'817.2
2017-Apr-22 00:30N 53°34' W 004°16'5918.2
2017-Apr-21 21:17N 53°23' W 005°53'518.8
2017-Apr-21 21:00N 53°21' W 006°01'612.8
2017-Apr-21 20:30N 53°21' W 006°12'1 1.0
2017-Apr-21 19:44N 53°21' W 006°13'0 0.0
2017-Apr-21 19:01N 53°21' W 006°13'0 0.0
2017-Apr-21 18:55N 53°21' W 006°13'0 0.0
2017-Apr-21 18:19N 53°21' W 006°13'0 0.0
2017-Apr-21 17:37N 53°21' W 006°13'0 0.0
2017-Apr-21 17:28N 53°21' W 006°13'0 0.0
2017-Apr-21 16:54N 53°21' W 006°13'0 0.0
2017-Apr-21 16:30N 53°21' W 006°13'2 4.6
2017-Apr-21 16:00N 53°21' W 006°09'714.4
2017-Apr-21 15:30N 53°22' W 005°57'815.2
2017-Apr-21 15:00N 53°25' W 005°45'715.0
2017-Apr-21 14:30N 53°27' W 005°33'5015.6
2017-Apr-21 11:17N 53°36' W 004°10'516.1
2017-Apr-21 11:00N 53°35' W 004°02'916.1
2017-Apr-21 10:25N 53°34' W 003°46'717.0
2017-Apr-21 10:00N 53°33' W 003°35'917.2
2017-Apr-21 09:30N 53°32' W 003°20'917.2
2017-Apr-21 09:00N 53°31' W 003°06'5 9.8
2017-Apr-21 08:30N 53°27' W 003°01'0 0.8
2017-Apr-21 08:00N 53°27' W 003°01'0 0.2
2017-Apr-21 07:30N 53°27' W 003°01'0 0.0
2017-Apr-21 07:00N 53°27' W 003°01'0 0.0
2017-Apr-21 06:30N 53°27' W 003°01'0 0.0
2017-Apr-21 05:56N 53°27' W 003°01'0 0.0
2017-Apr-21 05:26N 53°27' W 003°01'0 0.0
2017-Apr-21 04:59N 53°27' W 003°01'0 0.0
2017-Apr-21 04:26N 53°27' W 003°01'0 0.3
2017-Apr-21 04:01N 53°27' W 003°01'0 0.8
2017-Apr-21 03:30N 53°27' W 003°01'611.9
2017-Apr-21 03:00N 53°32' W 003°08'917.7
2017-Apr-21 02:30N 53°31' W 003°23'918.7
2017-Apr-21 02:00N 53°32' W 003°38'1019.5
2017-Apr-21 01:30N 53°33' W 003°54'918.8
2017-Apr-21 01:00N 53°34' W 004°10'5717.2
2017-Apr-20 21:42N 53°24' W 005°44'417.1
2017-Apr-20 21:27N 53°23' W 005°51'816.9
2017-Apr-20 21:00N 53°20' W 006°03'611.2
2017-Apr-20 20:30N 53°21' W 006°12'1 0.7
2017-Apr-20 19:40N 53°21' W 006°13'0 0.0
2017-Apr-20 19:28N 53°21' W 006°13'0 0.0
2017-Apr-20 18:58N 53°21' W 006°13'0 0.0
2017-Apr-20 18:15N 53°21' W 006°13'0 0.0
2017-Apr-20 17:39N 53°21' W 006°13'0 0.0
2017-Apr-20 17:27N 53°21' W 006°13'0 0.0
2017-Apr-20 16:57N 53°21' W 006°13'0 0.0
2017-Apr-20 16:27N 53°21' W 006°13'2 4.7
2017-Apr-20 16:00N 53°21' W 006°10'815.1
2017-Apr-20 15:30N 53°22' W 005°57'815.7
2017-Apr-20 15:01N 53°25' W 005°45'6416.2
2017-Apr-20 11:04N 53°35' W 003°59'517.1
2017-Apr-20 10:45N 53°34' W 003°50'416.8
2017-Apr-20 10:30N 53°34' W 003°43'816.6
2017-Apr-20 10:00N 53°33' W 003°29'917.1
2017-Apr-20 09:30N 53°31' W 003°15'816.2
2017-Apr-20 09:00N 53°28' W 003°03'1 2.4
2017-Apr-20 08:30N 53°27' W 003°01'0 0.8
2017-Apr-20 07:57N 53°27' W 003°01'0 0.0
2017-Apr-20 07:27N 53°27' W 003°01'0 0.0
2017-Apr-20 07:00N 53°27' W 003°01'0 0.0
2017-Apr-20 06:29N 53°27' W 003°01'0 0.0
2017-Apr-20 05:53N 53°27' W 003°01'0 0.0
2017-Apr-20 05:29N 53°27' W 003°01'0 0.0
2017-Apr-20 04:59N 53°27' W 003°01'0 0.0
2017-Apr-20 04:28N 53°27' W 003°01'0 0.0
2017-Apr-20 03:58N 53°27' W 003°01'0 0.5
2017-Apr-20 03:30N 53°27' W 003°01'0 0.9
2017-Apr-20 03:00N 53°27' W 003°01'714.8
2017-Apr-20 02:30N 53°32' W 003°11'1019.4
2017-Apr-20 02:00N 53°31' W 003°27'918.7
2017-Apr-20 01:31N 53°31' W 003°43'918.3
2017-Apr-20 01:00N 53°33' W 003°58'7817.0
2017-Apr-19 20:25N 53°20' W 006°07'4 8.7
2017-Apr-19 20:00N 53°21' W 006°13'0 0.0
2017-Apr-19 16:22N 53°21' W 006°13'2 5.6
2017-Apr-19 16:00N 53°21' W 006°09'714.0
2017-Apr-19 15:30N 53°22' W 005°58'815.8
2017-Apr-19 14:59N 53°25' W 005°45'6915.9
2017-Apr-19 10:38N 53°35' W 003°49'216.4
2017-Apr-19 10:30N 53°34' W 003°46'816.4
2017-Apr-19 10:00N 53°33' W 003°32'816.8
2017-Apr-19 09:31N 53°32' W 003°18'816.7
2017-Apr-19 09:00N 53°29' W 003°05'3 6.6
2017-Apr-19 08:30N 53°27' W 003°01'0 0.9
2017-Apr-19 08:00N 53°27' W 003°01'0 0.0
2017-Apr-19 07:30N 53°27' W 003°01'0 0.0
2017-Apr-19 07:00N 53°27' W 003°01'0 0.0
2017-Apr-19 06:30N 53°27' W 003°01'0 0.0
2017-Apr-19 05:59N 53°27' W 003°01'0 0.0
2017-Apr-19 05:29N 53°27' W 003°01'0 0.0
2017-Apr-19 04:59N 53°27' W 003°01'0 0.3
2017-Apr-19 04:30N 53°27' W 003°01'1 1.1
2017-Apr-19 04:00N 53°27' W 003°01'713.9
2017-Apr-19 03:30N 53°32' W 003°09'917.6
2017-Apr-19 03:00N 53°31' W 003°24'816.1
2017-Apr-19 02:30N 53°31' W 003°38'816.4
2017-Apr-19 02:00N 53°32' W 003°51'816.2
2017-Apr-19 01:30N 53°34' W 004°05'1016.1
2017-Apr-19 00:54N 53°36' W 004°21'616.2
2017-Apr-19 00:30N 53°36' W 004°31'816.0
2017-Apr-19 00:00N 53°35' W 004°45'815.7
2017-Apr-18 23:30N 53°34' W 004°58'915.1
2017-Apr-18 22:54N 53°31' W 005°12'814.5
2017-Apr-18 22:19N 53°28' W 005°26'1514.8
2017-Apr-18 21:19N 53°23' W 005°50'516.9
2017-Apr-18 21:00N 53°22' W 005°58'714.4
2017-Apr-18 20:29N 53°21' W 006°10'1 0.2
2017-Apr-18 16:05N 53°21' W 006°12'1 8.3
2017-Apr-18 16:00N 53°21' W 006°10'815.4
2017-Apr-18 15:30N 53°22' W 005°58'816.0
2017-Apr-18 15:00N 53°25' W 005°45'7016.6
2017-Apr-18 10:48N 53°34' W 003°49'517.8
2017-Apr-18 10:30N 53°34' W 003°40'917.9
2017-Apr-18 10:00N 53°33' W 003°25'917.2
2017-Apr-18 09:30N 53°32' W 003°11'815.3
2017-Apr-18 09:00N 53°27' W 003°01'0 0.5
2017-Apr-18 08:30N 53°27' W 003°01'0 0.9
2017-Apr-18 07:59N 53°27' W 003°01'0 0.0
2017-Apr-18 07:28N 53°27' W 003°01'0 0.0
2017-Apr-18 06:58N 53°27' W 003°01'0 0.0
2017-Apr-18 06:28N 53°27' W 003°01'0 0.0
2017-Apr-18 05:58N 53°27' W 003°01'0 0.0
2017-Apr-18 05:25N 53°27' W 003°01'0 0.0
2017-Apr-18 05:00N 53°27' W 003°01'0 0.0
2017-Apr-18 04:30N 53°27' W 003°01'0 0.9
2017-Apr-18 03:59N 53°27' W 003°01'0 0.9
2017-Apr-18 03:30N 53°27' W 003°02'714.6
2017-Apr-18 03:00N 53°31' W 003°12'816.1
2017-Apr-18 02:30N 53°31' W 003°25'815.8
2017-Apr-18 02:00N 53°31' W 003°39'815.6
2017-Apr-18 01:30N 53°32' W 003°52'915.4
2017-Apr-18 00:54N 53°33' W 004°07'5715.4
2017-Apr-17 21:12N 53°25' W 005°42'315.8
2017-Apr-17 21:00N 53°24' W 005°47'916.9
2017-Apr-17 20:30N 53°21' W 006°00'713.8
2017-Apr-17 20:01N 53°21' W 006°12'1 0.2
2017-Apr-17 15:25N 53°21' W 006°13'0 0.0
2017-Apr-17 14:43N 53°21' W 006°13'0 0.0
2017-Apr-17 11:11N 53°21' W 006°13'0 0.0
2017-Apr-17 04:32N 53°21' W 006°13'0 0.0
2017-Apr-17 04:23N 53°21' W 006°13'0 0.6
2017-Apr-17 04:00N 53°21' W 006°13'612.3
2017-Apr-17 03:30N 53°21' W 006°02'918.9
2017-Apr-17 03:00N 53°24' W 005°47'7416.5
2017-Apr-16 22:30N 53°34' W 003°44'816.0
2017-Apr-16 22:00N 53°33' W 003°31'816.4
2017-Apr-16 21:30N 53°32' W 003°17'714.8
2017-Apr-16 21:00N 53°30' W 003°05'4 7.2
2017-Apr-16 20:30N 53°27' W 003°01'0 0.0
2017-Apr-16 20:00N 53°27' W 003°01'0 0.9
2017-Apr-16 19:30N 53°27' W 003°01'0 0.0
2017-Apr-16 19:00N 53°27' W 003°01'0 0.0
2017-Apr-16 18:29N 53°27' W 003°01'0 0.0
2017-Apr-16 17:59N 53°27' W 003°01'0 0.0
2017-Apr-16 17:29N 53°27' W 003°01'0 0.0
2017-Apr-16 16:59N 53°27' W 003°01'0 0.0
2017-Apr-16 16:28N 53°27' W 003°01'0 0.0
2017-Apr-16 15:58N 53°27' W 003°01'0 0.0
2017-Apr-16 15:28N 53°27' W 003°01'0 0.0
2017-Apr-16 14:55N 53°27' W 003°01'0 0.0
2017-Apr-16 14:00N 53°27' W 003°01'0 0.0
2017-Apr-16 13:27N 53°27' W 003°01'0 0.0
2017-Apr-16 13:00N 53°27' W 003°01'0 0.0
2017-Apr-16 12:30N 53°27' W 003°01'0 0.0
2017-Apr-16 12:00N 53°27' W 003°01'  
Track history (hours):
 
Tides and Currents Weather Stations Pressure Air Temp Water Temp Dewpoint Dewpoint Depression Visibility Wind Speed Wind Dir Waves Ship Positions

Norbank

Operator: P & O Ferries

Last reported at 2017-Apr-26 11:30 UTC. Time now 2017-Apr-26 11:50 UTC.
Position N 53°33' W 003°30'.

; draft 5.5 m.

Type: Ship (hazmat cat A). MMSI: 246213000.

Date/timePositionNaut miles runAvg speedWind from/ knotsBaromVisibWave heightAir tempDewpointWater temp
2017-Apr-26 11:30N 53°33' W 003°30'1019.4
2017-Apr-26 11:00N 53°31' W 003°14'816.0
2017-Apr-26 10:31N 53°27' W 003°02'1 2.4
2017-Apr-26 09:59N 53°26' W 003°01'1 2.2
2017-Apr-26 09:29N 53°27' W 003°01'0 0.0
2017-Apr-26 08:44N 53°27' W 003°01'0 0.0
2017-Apr-26 08:29N 53°27' W 003°01'0 0.0
2017-Apr-26 07:52N 53°27' W 003°01'0 0.0
2017-Apr-26 07:22N 53°27' W 003°01'0 0.0
2017-Apr-26 06:58N 53°27' W 003°01'0 0.0
2017-Apr-26 06:28N 53°27' W 003°01'0 0.0
2017-Apr-26 05:58N 53°27' W 003°01'0 1.0
2017-Apr-26 05:30N 53°27' W 003°01'0 0.0
2017-Apr-26 05:00N 53°27' W 003°01'4 8.1
2017-Apr-26 04:30N 53°30' W 003°06'612.2
2017-Apr-26 04:00N 53°31' W 003°16'918.9
2017-Apr-26 03:30N 53°31' W 003°32'919.1
2017-Apr-26 03:00N 53°32' W 003°48'918.8
2017-Apr-26 02:30N 53°33' W 004°03'6618.6
2017-Apr-25 22:56N 53°23' W 005°54'818.0
2017-Apr-25 22:30N 53°20' W 006°06'4 8.6
2017-Apr-25 22:00N 53°21' W 006°13'0 0.0
2017-Apr-25 21:27N 53°21' W 006°13'0 0.0
2017-Apr-25 20:51N 53°21' W 006°13'0 0.0
2017-Apr-25 20:14N 53°21' W 006°13'0 0.0
2017-Apr-25 19:59N 53°21' W 006°13'0 0.0
2017-Apr-25 19:26N 53°21' W 006°13'0 0.0
2017-Apr-25 18:59N 53°21' W 006°13'0 0.0
2017-Apr-25 18:20N 53°21' W 006°13'0 0.0
2017-Apr-25 17:59N 53°21' W 006°13'1 2.6
2017-Apr-25 17:30N 53°21' W 006°11'815.8
2017-Apr-25 17:00N 53°22' W 005°58'1120.4
2017-Apr-25 16:29N 53°26' W 005°41'6621.7
2017-Apr-25 13:28N 53°35' W 003°52'1022.2
2017-Apr-25 13:00N 53°33' W 003°35'1121.2
2017-Apr-25 12:30N 53°32' W 003°17'917.3
2017-Apr-25 12:01N 53°28' W 003°04'3 6.0
2017-Apr-25 11:30N 53°26' W 003°01'1 1.6
2017-Apr-25 11:00N 53°27' W 003°01'0 0.6
2017-Apr-25 10:30N 53°27' W 003°01'0 0.0
2017-Apr-25 09:57N 53°27' W 003°01'0 0.0
2017-Apr-25 09:30N 53°27' W 003°01'0 0.0
2017-Apr-25 08:59N 53°27' W 003°01'0 0.0
2017-Apr-25 08:29N 53°27' W 003°01'0 0.0
2017-Apr-25 07:59N 53°27' W 003°01'0 0.0
2017-Apr-25 07:29N 53°27' W 003°01'0 0.0
2017-Apr-25 06:59N 53°27' W 003°01'0 0.0
2017-Apr-25 06:25N 53°27' W 003°01'0 0.0
2017-Apr-25 05:58N 53°27' W 003°01'0 0.0
2017-Apr-25 05:28N 53°27' W 003°01'0 0.9
2017-Apr-25 04:57N 53°27' W 003°01'0 0.3
2017-Apr-25 04:30N 53°27' W 003°01'2 4.0
2017-Apr-25 04:00N 53°28' W 003°04'3 6.4
2017-Apr-25 03:30N 53°31' W 003°07'510.5
2017-Apr-25 03:00N 53°31' W 003°16'715.0
2017-Apr-25 02:30N 53°31' W 003°28'815.1
2017-Apr-25 02:00N 53°31' W 003°41'815.4
2017-Apr-25 01:30N 53°32' W 003°54'815.9
2017-Apr-25 01:00N 53°33' W 004°07'6417.4
2017-Apr-24 21:18N 53°23' W 005°54'518.6
2017-Apr-24 21:01N 53°20' W 006°02'612.2
2017-Apr-24 20:30N 53°21' W 006°12'1 0.8
2017-Apr-24 19:42N 53°21' W 006°13'0 0.0
2017-Apr-24 19:30N 53°21' W 006°13'0 0.0
2017-Apr-24 19:00N 53°21' W 006°13'0 0.0
2017-Apr-24 18:23N 53°21' W 006°13'0 0.0
2017-Apr-24 17:47N 53°21' W 006°13'0 0.0
2017-Apr-24 17:29N 53°21' W 006°13'0 0.0
2017-Apr-24 16:59N 53°21' W 006°13'0 0.0
2017-Apr-24 16:10N 53°21' W 006°13'0 0.0
2017-Apr-24 14:22N 53°21' W 006°13'0 0.0
2017-Apr-24 13:09N 53°21' W 006°13'0 0.0
2017-Apr-24 12:57N 53°21' W 006°13'0 0.0
2017-Apr-24 12:27N 53°21' W 006°13'0 0.0
2017-Apr-24 08:37N 53°21' W 006°13'0 0.0
2017-Apr-24 08:19N 53°21' W 006°13'0 0.0
2017-Apr-24 07:55N 53°21' W 006°13'0 0.0
2017-Apr-24 07:19N 53°21' W 006°13'0 0.0
2017-Apr-24 06:42N 53°21' W 006°13'0 0.0
2017-Apr-24 06:00N 53°21' W 006°13'0 0.0
2017-Apr-24 05:24N 53°21' W 006°13'0 0.0
2017-Apr-24 04:47N 53°21' W 006°13'0 0.0
2017-Apr-24 04:30N 53°21' W 006°13'1 1.8
2017-Apr-24 04:00N 53°21' W 006°12'713.5
2017-Apr-24 03:30N 53°21' W 006°00'815.5
2017-Apr-24 03:00N 53°24' W 005°48'7415.3
2017-Apr-23 22:11N 53°34' W 003°45'316.7
2017-Apr-23 22:00N 53°34' W 003°40'816.4
2017-Apr-23 21:30N 53°33' W 003°26'816.8
2017-Apr-23 21:00N 53°31' W 003°12'815.6
2017-Apr-23 20:31N 53°27' W 003°02'0 0.7
2017-Apr-23 20:00N 53°27' W 003°01'0 0.8
2017-Apr-23 19:30N 53°27' W 003°01'0 0.0
2017-Apr-23 19:00N 53°27' W 003°01'0 0.0
2017-Apr-23 18:21N 53°27' W 003°01'0 0.0
2017-Apr-23 17:59N 53°27' W 003°01'0 0.0
2017-Apr-23 17:26N 53°27' W 003°01'0 0.0
2017-Apr-23 16:59N 53°27' W 003°01'0 0.0
2017-Apr-23 16:29N 53°27' W 003°01'0 0.0
2017-Apr-23 15:55N 53°27' W 003°01'0 0.0
2017-Apr-23 15:28N 53°27' W 003°01'0 0.0
2017-Apr-23 14:58N 53°27' W 003°01'0 0.0
2017-Apr-23 13:58N 53°27' W 003°01'0 0.0
2017-Apr-23 13:30N 53°27' W 003°01'0 0.0
2017-Apr-23 13:00N 53°27' W 003°01'0 0.0
2017-Apr-23 12:30N 53°27' W 003°01'0 0.0
2017-Apr-23 12:00N 53°27' W 003°01'0 0.0
2017-Apr-23 11:30N 53°27' W 003°01'0 0.0
2017-Apr-23 10:59N 53°27' W 003°01'0 0.0
2017-Apr-23 10:29N 53°27' W 003°01'0 0.0
2017-Apr-23 09:59N 53°27' W 003°01'0 0.0
2017-Apr-23 09:29N 53°27' W 003°01'0 0.0
2017-Apr-23 08:58N 53°27' W 003°01'0 0.0
2017-Apr-23 08:28N 53°27' W 003°01'0 0.0
2017-Apr-23 07:58N 53°27' W 003°01'0 0.0
2017-Apr-23 07:25N 53°27' W 003°01'0 0.0
2017-Apr-23 06:58N 53°27' W 003°01'0 0.0
2017-Apr-23 06:30N 53°27' W 003°01'0 0.0
2017-Apr-23 06:00N 53°27' W 003°01'0 0.0
2017-Apr-23 05:27N 53°27' W 003°01'0 0.0
2017-Apr-23 04:57N 53°27' W 003°01'0 1.0
2017-Apr-23 04:30N 53°27' W 003°01'0 0.3
2017-Apr-23 04:00N 53°27' W 003°01'5 9.1
2017-Apr-23 03:29N 53°30' W 003°06'714.4
2017-Apr-23 03:00N 53°31' W 003°18'815.9
2017-Apr-23 02:30N 53°32' W 003°31'816.9
2017-Apr-23 02:00N 53°32' W 003°45'916.7
2017-Apr-23 01:29N 53°34' W 003°60'6316.3
2017-Apr-22 21:35N 53°24' W 005°45'217.4
2017-Apr-22 21:29N 53°24' W 005°48'817.2
2017-Apr-22 21:00N 53°21' W 006°01'612.5
2017-Apr-22 20:30N 53°21' W 006°11'1 1.9
2017-Apr-22 19:58N 53°21' W 006°13'0 0.0
2017-Apr-22 19:22N 53°21' W 006°13'0 0.0
2017-Apr-22 18:45N 53°21' W 006°13'0 0.0
2017-Apr-22 18:27N 53°21' W 006°13'0 0.0
2017-Apr-22 18:00N 53°21' W 006°13'0 0.0
2017-Apr-22 17:21N 53°21' W 006°13'0 0.0
2017-Apr-22 16:38N 53°21' W 006°13'0 0.0
2017-Apr-22 16:30N 53°21' W 006°13'3 5.1
2017-Apr-22 16:00N 53°21' W 006°09'715.0
2017-Apr-22 15:30N 53°23' W 005°57'815.8
2017-Apr-22 15:00N 53°25' W 005°44'6418.3
2017-Apr-22 11:31N 53°35' W 003°58'121.0
2017-Apr-22 11:29N 53°35' W 003°57'1120.6
2017-Apr-22 10:58N 53°34' W 003°39'920.4
2017-Apr-22 10:30N 53°32' W 003°23'1019.0
2017-Apr-22 10:00N 53°32' W 003°07'611.9
2017-Apr-22 09:30N 53°27' W 003°01'0 0.9
2017-Apr-22 09:00N 53°27' W 003°01'0 0.0
2017-Apr-22 08:30N 53°27' W 003°01'0 0.0
2017-Apr-22 08:00N 53°27' W 003°01'0 0.0
2017-Apr-22 07:30N 53°27' W 003°01'0 0.0
2017-Apr-22 06:56N 53°27' W 003°01'0 0.0
2017-Apr-22 06:29N 53°27' W 003°01'0 0.0
2017-Apr-22 05:59N 53°27' W 003°01'0 0.0
2017-Apr-22 05:29N 53°27' W 003°01'0 0.0
2017-Apr-22 04:59N 53°27' W 003°01'0 0.0
2017-Apr-22 04:28N 53°27' W 003°01'0 0.2
2017-Apr-22 04:00N 53°27' W 003°01'0 0.8
2017-Apr-22 03:30N 53°27' W 003°01'4 7.8
2017-Apr-22 03:00N 53°30' W 003°06'815.0
2017-Apr-22 02:30N 53°31' W 003°18'917.9
2017-Apr-22 02:00N 53°31' W 003°33'917.6
2017-Apr-22 01:30N 53°32' W 003°48'917.1
2017-Apr-22 01:00N 53°32' W 004°02'817.2
2017-Apr-22 00:30N 53°34' W 004°16'5918.2
2017-Apr-21 21:17N 53°23' W 005°53'518.8
2017-Apr-21 21:00N 53°21' W 006°01'612.8
2017-Apr-21 20:30N 53°21' W 006°12'1 1.0
2017-Apr-21 19:44N 53°21' W 006°13'0 0.0
2017-Apr-21 19:01N 53°21' W 006°13'0 0.0
2017-Apr-21 18:55N 53°21' W 006°13'0 0.0
2017-Apr-21 18:19N 53°21' W 006°13'0 0.0
2017-Apr-21 17:37N 53°21' W 006°13'0 0.0
2017-Apr-21 17:28N 53°21' W 006°13'0 0.0
2017-Apr-21 16:54N 53°21' W 006°13'0 0.0
2017-Apr-21 16:30N 53°21' W 006°13'2 4.6
2017-Apr-21 16:00N 53°21' W 006°09'714.4
2017-Apr-21 15:30N 53°22' W 005°57'815.2
2017-Apr-21 15:00N 53°25' W 005°45'715.0
2017-Apr-21 14:30N 53°27' W 005°33'5015.6
2017-Apr-21 11:17N 53°36' W 004°10'516.1
2017-Apr-21 11:00N 53°35' W 004°02'916.1
2017-Apr-21 10:25N 53°34' W 003°46'717.0
2017-Apr-21 10:00N 53°33' W 003°35'917.2
2017-Apr-21 09:30N 53°32' W 003°20'917.2
2017-Apr-21 09:00N 53°31' W 003°06'5 9.8
2017-Apr-21 08:30N 53°27' W 003°01'0 0.8
2017-Apr-21 08:00N 53°27' W 003°01'0 0.2
2017-Apr-21 07:30N 53°27' W 003°01'0 0.0
2017-Apr-21 07:00N 53°27' W 003°01'0 0.0
2017-Apr-21 06:30N 53°27' W 003°01'0 0.0
2017-Apr-21 05:56N 53°27' W 003°01'0 0.0
2017-Apr-21 05:26N 53°27' W 003°01'0 0.0
2017-Apr-21 04:59N 53°27' W 003°01'0 0.0
2017-Apr-21 04:26N 53°27' W 003°01'0 0.3
2017-Apr-21 04:01N 53°27' W 003°01'0 0.8
2017-Apr-21 03:30N 53°27' W 003°01'611.9
2017-Apr-21 03:00N 53°32' W 003°08'917.7
2017-Apr-21 02:30N 53°31' W 003°23'918.7
2017-Apr-21 02:00N 53°32' W 003°38'1019.5
2017-Apr-21 01:30N 53°33' W 003°54'918.8
2017-Apr-21 01:00N 53°34' W 004°10'5717.2
2017-Apr-20 21:42N 53°24' W 005°44'417.1
2017-Apr-20 21:27N 53°23' W 005°51'816.9
2017-Apr-20 21:00N 53°20' W 006°03'611.2
2017-Apr-20 20:30N 53°21' W 006°12'1 0.7
2017-Apr-20 19:40N 53°21' W 006°13'0 0.0
2017-Apr-20 19:28N 53°21' W 006°13'0 0.0
2017-Apr-20 18:58N 53°21' W 006°13'0 0.0
2017-Apr-20 18:15N 53°21' W 006°13'0 0.0
2017-Apr-20 17:39N 53°21' W 006°13'0 0.0
2017-Apr-20 17:27N 53°21' W 006°13'0 0.0
2017-Apr-20 16:57N 53°21' W 006°13'0 0.0
2017-Apr-20 16:27N 53°21' W 006°13'2 4.7
2017-Apr-20 16:00N 53°21' W 006°10'815.1
2017-Apr-20 15:30N 53°22' W 005°57'815.7
2017-Apr-20 15:01N 53°25' W 005°45'6416.2
2017-Apr-20 11:04N 53°35' W 003°59'517.1
2017-Apr-20 10:45N 53°34' W 003°50'416.8
2017-Apr-20 10:30N 53°34' W 003°43'816.6
2017-Apr-20 10:00N 53°33' W 003°29'917.1
2017-Apr-20 09:30N 53°31' W 003°15'816.2
2017-Apr-20 09:00N 53°28' W 003°03'1 2.4
2017-Apr-20 08:30N 53°27' W 003°01'0 0.8
2017-Apr-20 07:57N 53°27' W 003°01'0 0.0
2017-Apr-20 07:27N 53°27' W 003°01'0 0.0
2017-Apr-20 07:00N 53°27' W 003°01'0 0.0
2017-Apr-20 06:29N 53°27' W 003°01'0 0.0
2017-Apr-20 05:53N 53°27' W 003°01'0 0.0
2017-Apr-20 05:29N 53°27' W 003°01'0 0.0
2017-Apr-20 04:59N 53°27' W 003°01'0 0.0
2017-Apr-20 04:28N 53°27' W 003°01'0 0.0
2017-Apr-20 03:58N 53°27' W 003°01'0 0.5
2017-Apr-20 03:30N 53°27' W 003°01'0 0.9
2017-Apr-20 03:00N 53°27' W 003°01'714.8
2017-Apr-20 02:30N 53°32' W 003°11'1019.4
2017-Apr-20 02:00N 53°31' W 003°27'918.7
2017-Apr-20 01:31N 53°31' W 003°43'918.3
2017-Apr-20 01:00N 53°33' W 003°58'7817.0
2017-Apr-19 20:25N 53°20' W 006°07'4 8.7
2017-Apr-19 20:00N 53°21' W 006°13'0 0.0
2017-Apr-19 16:22N 53°21' W 006°13'2 5.6
2017-Apr-19 16:00N 53°21' W 006°09'714.0
2017-Apr-19 15:30N 53°22' W 005°58'815.8
2017-Apr-19 14:59N 53°25' W 005°45'6915.9
2017-Apr-19 10:38N 53°35' W 003°49'216.4
2017-Apr-19 10:30N 53°34' W 003°46'816.4
2017-Apr-19 10:00N 53°33' W 003°32'816.8
2017-Apr-19 09:31N 53°32' W 003°18'816.7
2017-Apr-19 09:00N 53°29' W 003°05'3 6.6
2017-Apr-19 08:30N 53°27' W 003°01'0 0.9
2017-Apr-19 08:00N 53°27' W 003°01'0 0.0
2017-Apr-19 07:30N 53°27' W 003°01'0 0.0
2017-Apr-19 07:00N 53°27' W 003°01'0 0.0
2017-Apr-19 06:30N 53°27' W 003°01'0 0.0
2017-Apr-19 05:59N 53°27' W 003°01'0 0.0
2017-Apr-19 05:29N 53°27' W 003°01'0 0.0
2017-Apr-19 04:59N 53°27' W 003°01'0 0.3
2017-Apr-19 04:30N 53°27' W 003°01'1 1.1
2017-Apr-19 04:00N 53°27' W 003°01'713.9
2017-Apr-19 03:30N 53°32' W 003°09'917.6
2017-Apr-19 03:00N 53°31' W 003°24'816.1
2017-Apr-19 02:30N 53°31' W 003°38'816.4
2017-Apr-19 02:00N 53°32' W 003°51'816.2
2017-Apr-19 01:30N 53°34' W 004°05'1016.1
2017-Apr-19 00:54N 53°36' W 004°21'616.2
2017-Apr-19 00:30N 53°36' W 004°31'816.0
2017-Apr-19 00:00N 53°35' W 004°45'815.7
2017-Apr-18 23:30N 53°34' W 004°58'915.1
2017-Apr-18 22:54N 53°31' W 005°12'814.5
2017-Apr-18 22:19N 53°28' W 005°26'1514.8
2017-Apr-18 21:19N 53°23' W 005°50'516.9
2017-Apr-18 21:00N 53°22' W 005°58'714.4
2017-Apr-18 20:29N 53°21' W 006°10'1 0.2
2017-Apr-18 16:05N 53°21' W 006°12'1 8.3
2017-Apr-18 16:00N 53°21' W 006°10'815.4
2017-Apr-18 15:30N 53°22' W 005°58'816.0
2017-Apr-18 15:00N 53°25' W 005°45'7016.6
2017-Apr-18 10:48N 53°34' W 003°49'517.8
2017-Apr-18 10:30N 53°34' W 003°40'917.9
2017-Apr-18 10:00N 53°33' W 003°25'917.2
2017-Apr-18 09:30N 53°32' W 003°11'815.3
2017-Apr-18 09:00N 53°27' W 003°01'0 0.5
2017-Apr-18 08:30N 53°27' W 003°01'0 0.9
2017-Apr-18 07:59N 53°27' W 003°01'0 0.0
2017-Apr-18 07:28N 53°27' W 003°01'0 0.0
2017-Apr-18 06:58N 53°27' W 003°01'0 0.0
2017-Apr-18 06:28N 53°27' W 003°01'0 0.0
2017-Apr-18 05:58N 53°27' W 003°01'0 0.0
2017-Apr-18 05:25N 53°27' W 003°01'0 0.0
2017-Apr-18 05:00N 53°27' W 003°01'0 0.0
2017-Apr-18 04:30N 53°27' W 003°01'0 0.9
2017-Apr-18 03:59N 53°27' W 003°01'0 0.9
2017-Apr-18 03:30N 53°27' W 003°02'714.6
2017-Apr-18 03:00N 53°31' W 003°12'816.1
2017-Apr-18 02:30N 53°31' W 003°25'815.8
2017-Apr-18 02:00N 53°31' W 003°39'815.6
2017-Apr-18 01:30N 53°32' W 003°52'915.4
2017-Apr-18 00:54N 53°33' W 004°07'5715.4
2017-Apr-17 21:12N 53°25' W 005°42'315.8
2017-Apr-17 21:00N 53°24' W 005°47'916.9
2017-Apr-17 20:30N 53°21' W 006°00'713.8
2017-Apr-17 20:01N 53°21' W 006°12'1 0.2
2017-Apr-17 15:25N 53°21' W 006°13'0 0.0
2017-Apr-17 14:43N 53°21' W 006°13'0 0.0
2017-Apr-17 11:11N 53°21' W 006°13'0 0.0
2017-Apr-17 04:32N 53°21' W 006°13'0 0.0
2017-Apr-17 04:23N 53°21' W 006°13'0 0.6
2017-Apr-17 04:00N 53°21' W 006°13'612.3
2017-Apr-17 03:30N 53°21' W 006°02'918.9
2017-Apr-17 03:00N 53°24' W 005°47'7416.5
2017-Apr-16 22:30N 53°34' W 003°44'816.0
2017-Apr-16 22:00N 53°33' W 003°31'816.4
2017-Apr-16 21:30N 53°32' W 003°17'714.8
2017-Apr-16 21:00N 53°30' W 003°05'4 7.2
2017-Apr-16 20:30N 53°27' W 003°01'0 0.0
2017-Apr-16 20:00N 53°27' W 003°01'0 0.9
2017-Apr-16 19:30N 53°27' W 003°01'0 0.0
2017-Apr-16 19:00N 53°27' W 003°01'0 0.0
2017-Apr-16 18:29N 53°27' W 003°01'0 0.0
2017-Apr-16 17:59N 53°27' W 003°01'0 0.0
2017-Apr-16 17:29N 53°27' W 003°01'0 0.0
2017-Apr-16 16:59N 53°27' W 003°01'0 0.0
2017-Apr-16 16:28N 53°27' W 003°01'0 0.0
2017-Apr-16 15:58N 53°27' W 003°01'0 0.0
2017-Apr-16 15:28N 53°27' W 003°01'0 0.0
2017-Apr-16 14:55N 53°27' W 003°01'0 0.0
2017-Apr-16 14:00N 53°27' W 003°01'0 0.0
2017-Apr-16 13:27N 53°27' W 003°01'0 0.0
2017-Apr-16 13:00N 53°27' W 003°01'0 0.0
2017-Apr-16 12:30N 53°27' W 003°01'0 0.0
2017-Apr-16 12:00N 53°27' W 003°01'  

Dump ship's entire track history